Погода в Сохе

Узбекистан     39°56′48″N   71°08′47″E
темп.,
°C
ветер,
м/с
пор.,
м/с
влажн.,
%
обл.,
%
осадки,
мм/ч
давл.,
гПа
погр.,
м
27 февраля, сб
сб2723:00−12с00693 0.0 103132
02:00−12вюв006126 0.0 102933
05:00−12з005763 0.0 103034
08:00−10сз0160100 0.0 103048
11:00−9зсз2259100 0.0 1028319
14:00−8ссз215495 0.0 1027416
17:00−7с116098 0.1 1030163
20:00−9в116553 0.0 103521
28 февраля, вс
вс2823:00−10юв115126 0.0 103632
02:00−9вюв12460 0.0 103534
05:00−9юв12380 0.0 103321
08:00−7в11410 0.0 103128
11:00−3ссв22530 0.0 1025207
14:00−2с21620 0.0 1022193
17:00−2ссв00730 0.0 102242
20:00−2вюв11540 0.0 102621
1 марта, пн
пн123:00−2вюв22330 0.0 102621
02:00−3юв11280 0.0 102622
05:00−3ююв11261 0.0 102621
08:00−1ююв113016 0.0 102621
11:00+2з113913 0.0 1023102
14:00+4зсз113326 0.0 1021165
17:00+2зюз115312 0.0 102155
20:00−1ю11420 0.0 102622
2 марта, вт
вт223:00−1ююв11350 0.0 102722
02:00−1ю113567 0.0 102722
05:00−1ююз113783 0.0 102622
08:000ю1235100 0.0 102622
11:00+5зюз112692 0.0 1023190
14:00+5зсз2133100 0.0 1021261
17:00+3зюз1249100 0.0 102058
20:00+1ююз1252100 0.0 102322
3 марта, ср
ср323:000з1255100 0.0 102322
02:00−1ююз0159100 0.0 102222
05:00−2зюз115899 0.0 102221
08:000зюз115194 0.0 102221
11:00+2ссз214594 0.0 1019500
14:00+2ссз214794 0.0 1017592
17:00+1сз224981 0.0 1017614
20:00−1всв0164100 0.0 102048